GFSSW_700_temp_045.txt.gz
Temp
-1 -1 -0 2 4 5 6 6 7 7 7 8 8 8 8 8 9 9 9 10 10 11 11 11 11 12 12 12 12 12 12 13 12 12 11 12 11 12 11 12 12 11 11 11 10
-1 -1 -0 2 4 5 5 6 7 7 7 8 8 8 8 8 9 9 9 10 10 11 11 11 11 12 12 12 12 12 12 11 12 12 10 12 12 11 10 10 12 11 11 10 10
-1 -1 -1 2 3 5 5 6 7 7 7 8 8 8 8 9 9 9 10 10 10 11 11 11 11 11 11 12 12 12 11 12 12 12 12 11 12 12 11 12 11 11 10 10 10
-2 -1 -1 2 3 4 5 6 6 7 7 8 8 8 8 9 8 9 10 10 10 10 11 11 11 11 11 11 12 11 11 11 12 12 12 11 12 12 11 11 11 10 10 10 10
-1 -1 -0 2 4 4 5 6 6 7 7 8 8 8 8 9 9 9 10 10 10 10 11 11 11 11 11 11 11 11 11 11 11 11 11 11 11 11 11 10 10 10 10 10 9
-0 0 1 3 4 4 5 6 6 7 7 7 8 8 8 9 9 9 10 10 10 10 10 11 11 11 11 11 11 11 11 11 11 11 11 11 11 10 10 10 10 9 9 9 9
1 2 2 3 4 5 6 6 6 7 7 7 8 8 8 9 9 9 10 10 10 10 10 11 11 11 11 11 11 11 10 11 11 11 11 10 10 10 10 9 9 9 9 9 9
2 3 4 4 5 5 6 6 6 6 7 7 8 8 9 9 9 10 10 10 10 10 11 11 11 11 11 11 11 11 10 10 9 10 10 9 10 9 9 9 9 9 9 9 8
4 4 4 5 5 6 6 5 6 6 7 7 8 8 8 9 9 10 10 10 11 11 11 11 11 11 11 11 10 10 12 12 10 10 8 9 9 9 9 9 9 8 9 8 8
4 5 5 5 6 5 5 5 6 7 7 7 8 8 9 9 9 10 10 10 11 10 10 10 10 10 11 10 12 12 12 12 10 9 8 7 7 8 9 9 9 8 8 8 7
5 5 5 6 5 5 5 6 6 6 7 7 8 9 9 9 9 10 10 10 10 10 10 10 10 10 11 10 11 11 10 10 10 8 9 8 8 8 9 9 8 8 7 7 6
5 5 5 5 5 5 6 6 6 7 7 8 8 9 9 9 9 10 10 10 10 9 10 10 10 10 10 10 10 9 9 10 9 8 8 8 7 7 8 9 8 7 7 6 6
6 6 5 5 6 6 6 7 7 7 7 8 8 9 9 9 9 9 9 9 9 9 9 9 9 10 10 9 8 8 8 9 8 7 7 8 10 9 8 9 9 8 7 6 6
6 5 5 5 6 6 6 7 7 7 8 8 8 8 8 9 9 9 9 9 9 8 9 8 9 9 9 7 7 8 8 8 7 6 10 7 11 10 9 9 9 8 8 7 6
6 5 6 6 6 6 7 7 7 8 11 8 8 8 8 8 9 9 9 9 8 7 9 8 8 8 7 7 7 7 7 7 6 6 7 8 7 10 9 9 9 9 8 8 7
6 6 6 6 6 7 7 7 8 8 10 7 8 8 8 8 8 8 8 8 8 8 8 7 8 7 6 7 7 7 7 6 5 6 8 10 8 12 9 8 8 8 8 7 6
6 6 6 6 7 7 7 7 8 9 8 7 7 8 7 6 7 7 7 6 7 7 7 6 6 8 7 6 7 6 6 9 9 8 12 8 8 10 8 9 8 8 7 6 6
7 7 7 7 7 7 7 7 9 8 8 8 8 8 6 6 6 7 6 6 7 7 7 9 8 6 7 6 6 6 6 9 10 12 12 6 8 9 9 8 8 7 6 6 5
7 7 7 7 7 7 7 7 9 7 8 8 8 6 6 7 6 7 7 6 6 7 6 8 8 7 6 6 6 5 6 7 7 9 8 11 9 9 8 8 7 6 5 5 4
7 7 7 7 7 7 6 8 7 8 8 7 6 7 7 6 6 6 6 6 6 6 6 5 7 7 7 6 6 6 6 6 6 9 10 12 11 10 8 7 6 5 5 4 4
6 6 6 7 6 6 6 7 7 7 7 7 6 6 6 5 6 6 5 6 6 6 6 6 6 6 6 6 6 5 5 5 6 7 9 10 11 8 6 5 5 4 3 2 1
6 5 7 7 6 5 6 6 7 7 7 7 6 6 6 6 5 5 5 6 6 6 5 6 5 6 7 6 6 6 5 5 6 8 6 5 6 7 7 6 4 3 2 1 -0
6 6 6 6 5 5 6 6 6 6 6 6 6 6 6 6 5 5 6 6 6 6 5 5 4 6 6 6 6 5 6 6 4 3 3 6 7 6 6 5 3 3 3 2 1
6 5 6 6 6 5 6 6 6 7 6 6 6 6 6 6 6 6 6 6 6 5 5 5 5 5 6 5 4 4 4 4 3 3 5 6 6 6 6 4 2 1 -0 0 0
6 6 6 5 6 6 6 6 6 6 6 6 6 6 6 4 5 5 5 5 5 5 5 4 4 3 5 5 4 5 5 3 2 4 3 4 4 4 3 2 1 1 1 1 0
6 6 6 6 6 6 6 6 6 6 6 6 5 5 5 5 5 4 4 4 3 4 4 4 2 3 4 3 3 3 4 4 4 2 2 2 2 2 2 1 1 0 -0 -0 -1
6 6 6 6 6 5 5 6 6 5 5 5 5 5 4 5 4 4 4 4 4 3 3 2 1 -0 2 2 1 2 4 4 3 2 1 1 2 1 1 0 -0 -0 -0 -0 -1

GFSSW_700_temp_048.txt.gz
Temp
0 0 0 2 3 4 5 6 6 7 7 7 8 8 8 8 8 9 9 10 10 11 11 11 11 12 12 12 12 12 13 13 12 12 12 12 11 11 12 12 12 12 11 11 10
-1 -0 -0 0 2 3 5 5 6 7 7 7 8 8 8 8 8 9 9 10 10 11 11 11 12 12 12 12 12 12 12 12 12 12 11 12 12 11 10 11 12 11 11 11 10
-1 -1 -1 -0 1 3 5 5 6 7 7 7 8 8 8 8 8 9 9 10 10 10 11 11 11 11 12 12 12 12 12 12 12 12 12 12 12 12 11 11 11 11 10 10 10
-1 -1 -1 -1 1 3 4 5 6 6 6 7 8 8 8 8 8 9 9 10 10 10 11 11 11 11 11 11 12 11 11 12 12 12 12 12 12 12 11 11 11 10 10 10 10
-1 -1 -1 -1 1 3 4 5 6 6 6 7 8 8 8 8 9 9 9 10 10 10 11 11 11 11 11 11 11 11 11 11 11 12 12 11 11 12 11 11 10 10 10 10 10
-1 -1 -1 0 2 3 4 5 6 6 6 7 8 8 8 8 9 9 10 10 10 10 11 11 11 11 11 11 11 11 11 11 11 11 11 11 11 11 11 10 10 10 10 9 9
-0 -0 1 1 3 4 4 5 6 6 6 7 8 8 8 9 9 9 9 10 10 10 10 11 11 11 11 11 11 11 11 11 11 11 11 11 11 11 11 10 10 10 10 10 9
1 1 2 2 3 4 5 5 6 6 6 7 7 8 9 9 9 9 10 10 10 10 11 11 11 11 11 11 11 11 11 10 10 10 11 10 11 10 10 9 9 9 10 9 9
2 2 3 3 4 5 5 5 6 6 6 7 7 7 8 9 9 9 10 10 11 10 11 11 11 11 11 11 10 10 11 12 11 11 10 10 10 9 9 9 9 9 9 9 9
3 3 3 4 5 5 5 5 5 6 6 7 7 8 8 9 9 10 10 10 10 11 11 11 11 11 11 10 10 12 11 12 12 11 10 9 10 8 8 9 8 8 8 8 8
4 4 4 5 5 5 5 5 5 6 6 6 7 8 9 9 9 10 10 10 10 10 10 10 10 11 10 10 11 11 11 11 11 10 10 9 9 8 8 9 9 9 7 7 7
4 5 5 5 5 5 5 6 5 6 7 8 8 9 9 9 9 10 10 10 10 10 9 9 10 10 10 11 11 10 9 10 10 10 9 9 10 9 8 9 8 8 7 6 5
5 5 5 5 5 5 6 7 7 7 7 8 8 9 9 9 8 10 9 10 10 9 8 9 9 10 10 10 10 9 9 9 9 9 8 9 9 11 9 9 9 8 7 6 5
5 5 5 5 5 5 6 7 7 7 7 8 8 8 8 8 9 9 9 9 9 9 8 9 9 9 9 9 8 8 9 8 8 7 8 8 8 9 10 10 10 10 9 7 7
6 6 5 5 5 6 6 7 7 8 9 7 8 8 9 8 9 9 9 9 9 7 9 9 8 9 9 7 7 7 8 8 8 7 6 8 8 9 9 9 10 10 9 8 7
6 6 6 6 6 6 7 7 7 8 9 7 8 8 8 8 8 8 8 8 8 8 8 8 8 8 7 8 7 7 7 8 6 6 6 10 9 10 9 10 9 9 9 8 8
6 6 6 6 7 7 7 7 8 8 8 8 7 8 7 7 7 8 7 8 7 8 9 7 8 8 7 7 7 7 7 8 6 5 8 9 8 10 9 9 8 8 8 7 7
6 6 6 7 7 7 7 7 8 9 8 8 8 8 7 7 7 7 7 7 7 7 7 8 7 7 8 7 6 6 6 7 7 8 9 8 8 10 9 9 8 7 7 6 6
6 7 7 7 7 7 7 7 8 8 8 8 8 7 7 7 6 7 6 6 7 7 7 8 8 7 7 7 6 6 6 7 7 8 9 10 9 10 9 9 8 7 6 5 5
7 7 7 7 7 7 7 7 7 7 8 7 7 7 8 7 7 6 7 6 6 6 6 6 6 7 8 7 6 6 7 6 6 6 7 11 10 7 7 7 7 7 5 4 4
6 7 6 7 7 7 7 7 7 7 7 7 7 6 7 6 6 6 6 6 6 6 6 6 6 6 7 7 6 6 6 6 6 7 6 5 8 7 6 6 5 5 4 3 2
6 6 6 6 6 6 6 6 7 7 7 7 7 6 6 6 5 5 5 6 6 6 6 6 5 6 7 7 6 6 6 6 6 7 6 7 6 7 7 6 5 4 3 3 2
6 6 6 6 6 6 6 6 7 7 7 7 7 6 6 6 6 5 6 6 6 6 6 5 5 5 6 6 6 6 6 6 5 4 5 3 6 6 6 4 3 2 2 2 2
6 5 6 6 6 6 6 6 6 6 6 6 6 6 6 6 5 5 5 6 6 6 5 5 5 5 5 5 4 4 4 4 4 3 4 4 5 5 5 3 2 3 2 1 0
6 5 5 5 6 6 5 6 6 6 6 6 6 6 5 4 5 5 5 5 5 5 5 4 5 4 4 5 5 4 5 5 4 4 2 3 3 3 2 2 3 2 1 1 1
6 6 6 6 6 6 6 6 5 6 6 6 5 6 5 4 4 3 4 4 3 5 4 4 3 3 4 4 4 3 4 4 3 3 2 2 2 2 2 2 2 1 1 -0 -0
6 6 6 6 6 5 5 5 6 6 5 5 5 5 5 5 4 4 4 4 3 3 4 3 2 1 2 3 2 3 4 3 3 3 2 2 2 2 2 1 1 1 -1 -0 -0

GFSSW_700_temp_051.txt.gz
Temp
1 1 1 1 2 3 4 5 6 6 7 7 7 7 8 8 8 8 9 10 10 11 11 11 11 12 12 12 12 12 12 12 12 12 12 12 12 12 12 12 12 11 11 11 10
-0 0 0 1 1 3 3 5 5 6 7 7 7 7 7 8 8 8 9 10 10 10 11 11 11 12 12 12 12 12 12 12 12 12 12 12 12 11 12 12 12 11 11 11 10
-1 -1 -0 0 1 2 3 5 5 6 6 7 7 7 7 8 8 8 9 9 10 10 10 11 11 12 12 12 12 12 12 12 12 12 12 12 12 11 12 12 12 11 11 11 10
-1 -1 -1 -0 1 1 3 4 5 6 6 6 7 7 7 8 8 9 9 10 10 10 10 11 11 11 11 11 11 11 11 11 11 11 11 12 12 12 11 11 11 10 10 10 10
-1 -1 -1 -1 0 1 3 4 5 6 6 6 7 7 7 8 8 9 9 9 10 10 10 11 11 11 11 11 11 11 11 11 11 11 12 12 12 11 11 11 11 10 10 10 9
-1 -1 -1 -1 0 2 3 4 5 6 6 6 6 7 7 8 9 9 9 9 10 10 10 11 11 11 11 11 11 11 11 11 11 12 12 11 11 11 11 11 10 10 9 9 9
-1 -1 -1 -0 1 2 3 4 5 6 6 6 6 7 8 8 9 9 9 9 10 10 10 11 11 11 11 11 11 11 11 11 12 11 11 11 11 11 11 10 10 10 10 9 9
-1 -0 -0 1 2 3 3 4 5 5 6 6 6 7 8 8 9 9 9 10 10 10 10 10 10 11 11 11 11 11 11 11 11 11 11 11 11 11 11 9 9 9 9 9 9
0 1 1 2 2 3 4 5 5 5 6 6 6 7 8 8 9 9 9 10 10 10 10 10 11 11 11 11 11 11 11 11 10 10 10 10 10 11 10 9 9 8 9 9 8
2 2 2 3 3 4 4 4 5 5 6 6 6 8 8 9 9 9 10 10 10 11 11 11 11 11 11 11 11 10 10 11 10 10 10 10 10 10 10 9 8 8 8 8 8
3 3 3 3 4 4 4 4 5 5 6 6 6 8 8 9 9 9 10 10 10 10 10 10 10 11 10 10 10 10 10 10 11 10 10 10 10 10 9 9 9 8 8 8 8
3 4 4 4 4 4 4 5 5 6 6 7 8 8 9 9 9 9 10 10 10 10 10 10 10 10 10 10 10 10 10 10 9 9 9 9 9 10 10 10 8 8 7 7 7
4 4 4 4 4 4 5 6 6 6 7 7 8 8 8 9 10 9 9 10 10 9 9 9 9 9 9 9 10 10 9 9 8 8 8 9 10 10 11 10 9 8 7 7 7
4 4 4 4 4 5 6 6 6 7 7 7 8 8 8 9 9 9 9 9 9 9 9 8 9 9 9 9 9 8 9 8 8 8 8 8 6 9 10 10 10 9 8 8 7
5 4 4 4 5 5 6 6 7 7 5 7 8 8 8 8 8 9 9 9 9 9 9 9 9 9 8 9 8 8 8 8 8 7 6 9 7 9 10 10 10 9 9 8 8
5 5 5 5 5 6 6 7 7 7 7 6 7 8 8 8 8 8 8 8 8 8 8 8 8 8 8 8 7 7 7 7 7 6 4 9 7 9 9 9 9 9 9 8 8
5 5 5 6 6 6 7 7 7 7 7 7 7 8 8 7 8 8 8 8 8 8 8 8 8 8 7 7 7 7 7 6 5 3 3 9 8 10 9 8 8 9 8 8 7
5 5 6 6 6 7 7 7 7 8 7 7 7 7 7 6 6 7 7 7 6 7 7 7 6 7 7 7 7 6 6 6 5 3 6 8 8 8 8 8 8 8 7 7 6
5 6 6 6 6 7 7 7 7 8 8 8 7 7 7 7 7 6 6 6 6 6 6 7 7 6 6 7 6 6 6 6 6 7 6 8 8 7 8 8 8 7 6 6 5
6 6 6 6 6 7 7 6 7 7 7 8 7 7 7 7 7 7 6 6 6 6 6 6 7 7 7 7 6 6 6 6 6 4 5 7 7 7 7 7 6 6 5 4 4
6 6 7 7 7 7 6 7 7 7 7 7 7 7 7 6 6 6 6 6 6 6 6 6 6 6 6 7 6 6 5 5 6 6 2 1 6 6 6 6 5 5 4 4 4
6 6 6 6 6 6 6 6 7 7 7 7 7 6 6 6 6 6 6 6 6 6 6 6 5 6 6 6 6 6 6 5 5 5 5 4 6 6 5 4 3 3 3 3 3
5 6 6 6 5 5 6 6 6 6 6 7 7 6 6 6 6 5 6 6 6 6 5 5 5 5 5 5 5 5 5 5 5 4 5 2 5 5 4 4 4 3 3 2 2
5 5 6 6 5 5 5 6 6 6 6 6 6 6 6 5 5 5 5 5 5 5 5 5 5 5 5 5 4 5 5 4 4 3 4 4 4 4 4 3 3 2 2 1 1
6 6 5 6 6 5 5 6 6 6 6 6 6 6 6 6 5 5 5 5 5 5 5 5 5 5 5 5 4 4 4 5 4 3 2 3 3 4 2 2 2 2 1 1 0
6 6 6 6 6 6 6 6 6 6 6 6 6 6 5 5 5 5 5 5 5 5 4 4 4 4 5 4 4 4 4 4 3 3 2 2 3 2 1 1 1 1 1 0 -1
6 6 6 6 5 5 5 5 6 5 5 5 5 5 5 5 4 4 4 4 4 4 4 3 3 2 3 3 3 3 3 2 3 2 2 2 2 1 1 1 1 1 0 -0 -1

GFSSW_700_temp_054.txt.gz
Temp
3 2 2 2 2 4 4 5 6 6 7 7 8 7 7 8 8 8 9 9 10 11 11 11 12 12 12 12 12 12 12 12 12 12 12 12 12 12 12 12 12 12 11 11 10
1 1 0 0 1 2 4 4 5 6 6 7 7 7 7 7 8 8 9 9 10 10 11 11 11 11 12 12 12 12 12 12 12 12 12 12 12 12 12 12 12 11 11 11 10
1 1 -0 -0 0 2 3 3 4 5 6 6 7 7 7 7 7 8 9 9 9 9 10 10 11 11 12 12 12 12 12 12 12 12 11 11 12 12 12 12 11 11 11 10 10
-0 -1 -1 -0 -0 1 2 3 4 5 6 6 6 7 7 7 8 8 9 9 9 10 10 10 11 11 11 11 11 11 11 11 11 11 11 11 11 11 11 11 11 11 10 10 9
-2 -1 -1 -1 -0 0 2 3 3 5 5 6 6 7 7 7 8 8 8 9 9 10 10 10 11 11 11 11 11 11 11 11 11 11 11 11 11 11 11 11 11 11 10 9 9
-1 -2 -1 -1 -0 -0 2 3 4 5 5 6 6 7 7 7 8 8 9 9 9 9 10 10 10 11 11 11 11 11 11 11 11 11 11 11 11 11 11 11 11 10 10 9 9
-1 -1 -1 -1 -1 0 1 3 3 5 5 5 6 7 7 7 8 9 9 9 9 9 9 10 10 11 11 11 11 11 11 11 11 11 11 11 11 11 11 11 10 10 9 9 9
-1 -1 -1 -1 -1 1 2 3 4 5 5 5 6 7 7 7 8 9 9 9 9 9 10 10 10 11 11 11 11 11 11 11 11 11 11 10 11 11 10 10 10 9 9 8 8
-1 -1 -1 -0 1 2 2 3 4 4 5 6 6 7 7 8 8 9 9 9 10 10 10 10 10 10 11 11 11 10 11 11 10 10 10 10 11 11 10 10 9 9 9 8 8
0 0 0 1 1 2 3 3 4 4 5 6 7 7 7 8 9 9 9 10 10 10 10 10 10 10 10 10 11 11 10 10 10 10 10 10 11 10 9 9 9 9 9 8 8
1 1 1 2 3 3 3 3 4 4 6 6 7 7 8 8 9 9 9 10 10 10 10 10 11 11 11 10 10 10 10 10 10 10 10 10 9 9 9 9 9 9 8 8 7
3 3 2 3 3 3 3 4 5 5 6 7 7 7 8 8 9 9 9 10 10 10 10 10 10 10 10 10 10 9 9 10 10 10 9 9 9 9 9 10 9 8 8 7 7
3 3 3 2 2 3 4 5 5 6 6 7 7 7 8 9 9 9 9 10 10 10 10 10 10 10 9 9 9 9 9 9 9 9 8 8 9 10 10 10 10 9 8 8 7
3 3 3 3 4 4 5 6 6 6 7 7 7 7 7 8 8 9 9 9 9 9 9 9 9 9 9 9 9 9 9 9 8 7 7 7 7 10 10 10 10 9 9 8 8
3 3 3 4 4 5 6 6 6 7 5 7 7 7 7 8 8 9 9 9 9 9 9 9 9 9 9 9 8 8 8 7 7 7 7 8 6 10 10 10 10 9 8 7 8
3 3 4 4 5 5 6 6 6 7 6 6 7 7 7 8 8 8 8 8 8 8 8 8 8 8 8 8 7 7 7 7 7 6 4 8 7 10 9 9 9 9 8 7 7
4 4 4 5 5 6 6 6 6 6 6 7 7 7 7 7 7 7 7 8 8 7 7 8 7 7 7 7 7 6 6 6 4 3 3 7 6 9 9 9 8 8 7 7 7
4 4 5 5 6 6 6 6 6 7 6 6 7 7 6 6 7 7 7 7 7 7 7 7 7 7 7 7 7 6 6 6 5 2 4 8 7 8 8 7 7 7 7 7 6
5 5 5 5 6 6 6 6 7 7 7 7 6 7 6 6 6 6 6 6 6 6 6 6 7 7 7 6 6 6 5 6 5 5 4 7 7 8 7 7 7 7 6 6 5
5 5 5 6 6 6 6 6 7 7 7 7 7 7 7 7 6 6 6 6 6 6 6 6 6 6 6 6 6 5 5 5 5 4 4 5 7 7 6 6 5 5 5 5 4
5 6 6 6 6 6 6 6 6 6 7 7 7 7 6 7 6 6 6 6 6 6 6 6 6 6 6 6 6 6 5 5 5 5 2 1 5 6 5 5 4 4 4 3 3
6 6 6 6 6 6 6 6 6 6 6 6 6 7 6 6 6 6 6 6 6 6 6 6 5 5 6 6 6 5 5 5 5 4 4 3 5 5 5 4 4 4 3 3 2
5 6 6 6 6 6 6 6 6 6 6 6 6 6 6 6 6 6 6 6 5 5 5 5 5 5 5 5 5 5 5 5 4 4 4 1 5 4 5 4 3 3 2 1 1
5 6 6 6 5 5 6 6 6 6 6 6 6 6 6 5 5 5 5 5 5 6 5 5 5 5 6 5 5 5 5 4 4 3 4 4 4 4 3 2 2 2 1 1 1
5 5 6 6 5 5 6 6 6 6 6 6 6 6 6 6 6 6 6 5 5 5 5 5 5 5 5 4 4 5 5 4 3 3 2 2 2 2 2 2 1 1 0 -0 -1
5 5 5 5 5 5 5 6 6 6 6 6 6 6 6 6 5 5 5 5 5 5 4 4 4 4 4 4 4 4 3 3 3 3 2 2 2 2 2 1 1 0 0 -0 -0
5 5 5 5 5 5 6 6 6 5 6 6 5 5 5 5 5 5 4 4 4 4 4 3 3 2 3 3 3 3 2 2 2 2 2 2 2 1 1 1 1 1 -0 -1 -1

GFSSW_700_temp_057.txt.gz
Temp
4 4 4 4 4 4 5 5 5 6 6 7 7 8 8 8 8 8 9 9 9 10 11 11 12 12 12 12 12 12 12 12 12 12 12 12 12 12 12 12 12 12 11 11 10
3 3 3 3 3 3 3 4 4 5 6 6 7 7 7 8 7 8 9 9 9 10 11 11 11 12 11 12 12 12 12 12 12 12 12 11 11 11 11 11 11 11 11 10 10
2 2 1 1 1 1 2 3 4 4 5 6 6 7 7 7 7 8 8 9 9 10 10 11 11 11 11 11 12 12 12 12 12 11 11 11 11 11 11 11 11 11 11 10 10
1 -0 -0 -1 -1 0 1 2 3 4 5 6 6 6 6 7 7 7 8 8 9 9 10 10 11 11 11 11 12 12 11 11 11 11 11 11 11 11 11 11 11 11 11 10 9
0 -2 -2 -2 -2 -1 1 2 3 4 4 5 6 6 6 7 7 8 8 8 8 9 9 10 10 11 11 11 11 11 11 11 11 11 11 11 11 11 11 11 11 11 10 10 9
-0 -3 -3 -2 -2 -1 0 2 2 3 4 5 6 6 6 7 7 8 8 8 9 9 9 9 10 10 10 11 11 11 11 11 11 11 11 11 11 11 11 11 11 10 10 9 9
-0 -2 -2 -2 -1 -1 0 1 2 4 4 5 5 6 6 7 7 8 8 8 9 9 9 9 9 10 10 10 11 11 11 11 11 11 11 11 11 11 11 11 10 10 9 9 8
-1 -2 -2 -2 -1 -1 0 1 2 3 4 4 5 6 7 7 8 8 8 9 9 9 9 9 9 9 10 10 11 11 10 10 11 11 11 10 11 11 10 10 10 9 9 8 8
-1 -1 -2 -2 -1 -0 0 2 2 3 4 4 5 6 6 7 8 8 8 9 9 9 9 9 9 10 10 10 10 10 10 10 10 11 10 10 11 11 10 10 9 9 8 8 8
-0 -1 -1 -1 -1 0 1 2 3 3 4 5 5 6 7 7 8 8 8 9 9 9 9 9 9 10 10 10 10 10 10 10 10 10 10 10 11 10 10 9 9 8 8 8 8
1 0 -0 -0 0 1 2 2 3 3 4 5 6 6 7 7 8 8 8 9 9 9 9 9 10 10 10 10 10 10 10 10 10 10 9 10 10 10 9 9 9 9 8 7 7
1 1 1 1 1 2 2 3 3 4 4 6 6 6 7 7 8 8 9 9 9 10 10 10 10 10 10 10 10 10 9 9 9 9 9 9 10 10 10 10 9 9 8 8 7
2 2 2 1 2 2 2 3 4 4 5 5 6 6 7 7 8 8 9 9 9 10 10 10 10 10 10 9 9 9 9 9 9 9 8 8 9 10 10 10 10 9 9 8 7
3 2 2 2 2 2 3 4 5 5 6 6 6 7 7 7 7 8 8 9 9 9 9 9 9 9 9 9 8 9 9 9 8 7 7 7 6 10 11 10 9 10 9 8 7
2 2 2 3 3 4 4 5 5 6 4 6 6 7 7 7 7 8 8 9 9 9 9 9 9 8 9 8 8 8 8 8 7 7 6 8 6 11 10 9 9 9 9 8 7
3 3 3 3 4 4 5 5 6 6 6 6 6 7 7 7 7 7 8 8 8 8 8 8 8 8 8 8 7 7 7 6 6 6 4 7 6 9 9 9 8 8 8 8 7
3 4 4 4 4 5 5 5 6 6 6 6 7 7 7 7 7 7 7 8 8 7 8 8 8 8 7 7 7 6 6 6 4 3 2 6 5 9 8 8 7 7 8 7 7
4 4 4 5 5 5 5 6 6 6 6 6 6 6 6 6 6 6 7 7 7 7 7 7 7 7 7 7 6 6 6 6 5 2 3 6 7 7 7 7 7 7 7 7 6
4 4 4 5 5 6 5 6 6 6 6 6 6 6 6 6 6 6 6 6 6 6 6 6 6 6 6 6 6 6 5 5 5 4 3 6 7 7 6 6 6 6 6 6 5
4 4 5 5 5 5 6 6 6 7 7 6 6 6 6 6 6 6 6 6 6 6 6 6 6 6 6 6 6 6 5 5 5 4 3 4 6 6 6 6 5 5 5 4 3
4 5 5 5 5 6 6 6 6 6 7 6 6 6 7 6 6 6 6 6 6 6 6 6 6 6 6 6 6 5 4 4 5 4 1 1 5 5 5 5 4 4 4 3 3
5 5 5 6 6 6 6 6 6 6 6 6 6 6 6 6 6 6 6 6 6 6 6 6 5 5 5 6 5 5 5 5 4 4 3 2 4 5 4 4 4 3 2 2 2
5 5 6 6 6 6 6 6 6 6 6 6 6 6 6 6 6 5 5 6 5 5 5 5 5 5 5 5 5 5 5 4 4 4 4 1 4 4 4 4 3 3 2 1 1
5 5 5 6 6 6 6 6 6 6 6 6 6 6 6 5 5 6 5 5 5 5 5 5 5 5 6 5 5 5 4 4 4 3 4 4 4 3 2 2 2 2 1 1 0
4 5 5 6 6 5 5 6 6 5 6 6 5 5 5 5 5 5 5 5 5 5 5 5 5 5 5 5 4 5 4 3 3 2 2 3 2 2 2 2 2 1 0 -0 -1
4 5 5 5 5 5 5 5 5 5 6 6 5 5 5 5 5 5 5 5 5 5 4 4 4 4 4 4 4 4 4 3 2 2 3 2 2 2 2 1 1 0 -0 -1 -1
4 4 5 5 5 5 5 5 5 5 5 5 5 5 5 5 5 5 5 4 4 4 4 3 3 3 3 3 3 3 4 2 2 3 2 2 2 1 1 1 -0 -1 -1 -2 -1

GFSSW_700_temp_060.txt.gz
Temp
4 4 4 4 4 4 5 5 6 6 6 7 7 7 8 8 8 9 9 9 9 10 10 11 11 11 11 12 12 12 12 12 12 12 12 12 12 12 11 11 11 11 11 11 11
4 4 4 4 4 4 4 4 5 5 5 6 7 7 7 8 8 9 8 8 9 9 9 10 11 11 11 12 12 12 12 12 12 12 12 12 11 11 11 11 11 11 11 11 11
3 3 3 3 3 3 3 3 4 4 5 5 6 7 7 7 7 9 8 8 8 9 9 10 10 11 11 11 12 11 12 12 12 12 11 11 11 11 11 11 11 11 11 11 10
3 3 2 2 2 1 1 2 3 4 4 5 6 6 6 6 7 8 8 8 8 8 8 9 10 11 11 11 11 11 12 11 11 11 11 11 11 11 11 11 11 11 11 10 10
2 2 0 -1 -1 -1 0 1 2 3 4 4 5 6 6 6 7 7 8 7 8 8 8 9 10 10 11 11 11 11 11 11 11 11 11 11 10 10 11 11 11 11 10 10 9
2 1 -0 -2 -2 -2 -1 1 2 3 3 4 4 5 6 6 6 7 7 7 8 8 8 9 9 10 10 11 11 11 11 11 11 11 10 10 10 10 11 11 10 10 10 9 9
1 -0 -2 -3 -3 -2 -1 0 1 2 2 3 4 5 5 6 6 7 7 7 8 8 8 9 9 9 10 10 10 11 11 11 11 10 10 10 11 11 11 10 10 10 9 9 8
1 -1 -2 -2 -2 -1 -1 -0 0 1 2 3 4 4 5 6 6 7 7 7 8 8 9 8 9 10 10 10 10 10 10 10 10 10 10 10 11 10 10 10 10 10 9 8 8
-0 -2 -2 -2 -2 -1 -1 -1 0 1 2 3 3 4 5 6 7 7 7 8 8 8 9 8 9 9 9 10 10 10 10 10 10 10 10 10 10 10 10 10 10 9 9 8 8
-0 -1 -2 -2 -2 -1 -1 -0 1 1 2 3 4 5 6 6 7 7 7 8 8 8 8 8 9 9 9 9 9 10 10 10 10 10 10 10 10 10 10 10 9 9 9 8 8
0 -1 -1 -1 -1 -1 -0 0 1 2 3 4 4 5 6 6 7 7 7 8 8 8 8 8 9 9 9 9 10 10 10 10 10 10 9 10 10 10 10 10 9 9 9 8 7
1 0 -0 -0 -0 0 0 0 1 2 3 4 5 5 6 6 7 7 7 8 8 9 9 9 9 9 9 10 10 10 10 10 9 9 9 9 10 11 10 10 10 9 8 8 7
1 1 1 1 0 0 1 1 2 3 3 4 5 5 6 6 7 7 7 8 8 8 9 9 9 9 9 10 9 9 9 9 8 8 8 9 10 10 10 10 9 9 9 8 7
2 2 2 1 1 1 2 3 3 4 4 4 5 5 6 6 6 7 7 7 8 8 9 9 9 9 9 9 9 8 8 8 8 8 7 7 6 10 10 9 9 9 9 8 7
2 2 2 2 2 2 3 4 4 5 2 5 5 6 6 6 6 7 7 8 8 8 8 9 9 8 8 8 8 8 8 7 7 7 6 7 6 10 8 8 8 9 9 8 8
3 2 2 3 3 3 4 4 5 5 4 5 6 6 6 6 6 7 7 7 8 8 8 8 8 8 8 7 7 7 7 6 6 6 4 5 5 8 8 8 8 8 8 8 7
3 3 3 3 3 4 4 5 5 5 5 5 5 6 5 6 6 7 7 7 7 7 8 8 8 7 7 7 7 7 6 6 4 3 2 5 5 8 7 7 7 7 7 8 7
3 3 4 4 4 4 4 5 5 5 5 5 6 5 6 6 7 7 7 7 7 7 7 7 7 7 7 7 6 6 6 6 5 3 3 5 6 6 6 6 6 7 6 6 6
3 4 4 4 5 5 5 5 5 5 5 5 5 6 6 6 7 6 6 6 6 6 7 7 6 6 6 6 6 6 6 5 5 3 2 5 6 6 6 6 6 6 6 5 5
3 4 4 4 5 5 5 5 6 6 6 6 6 6 7 6 6 6 6 6 6 6 6 6 6 6 6 5 5 5 5 5 5 3 3 4 5 5 5 5 5 5 5 4 4
4 4 4 5 5 5 5 6 6 6 6 6 6 6 6 6 6 6 6 6 6 6 6 6 6 5 5 5 5 5 4 4 4 4 1 0 4 5 5 5 5 5 4 4 3
4 4 5 5 5 6 6 6 6 6 6 6 6 6 6 6 6 6 6 6 6 6 6 6 5 5 5 5 5 5 5 4 4 3 3 2 4 5 4 4 4 4 3 3 2
4 4 5 5 5 5 6 6 6 6 6 6 6 6 6 6 5 5 5 5 5 5 5 5 5 5 5 5 5 4 5 4 4 4 3 1 4 4 4 3 3 3 2 2 1
4 4 5 5 5 5 5 6 6 6 6 6 6 5 5 5 5 5 5 5 5 5 5 5 5 5 5 5 5 5 4 4 3 3 4 4 4 4 3 2 2 2 1 1 0
4 4 5 5 5 5 5 5 6 5 5 5 5 5 5 5 5 5 5 5 5 5 5 5 5 5 5 5 4 4 4 4 3 3 2 3 3 2 2 1 1 1 0 -0 -1
4 4 5 5 5 5 5 5 5 5 5 5 5 5 5 5 5 5 5 5 5 5 5 4 4 4 4 4 4 4 4 4 3 3 2 2 2 2 2 1 1 0 -0 -1 -1
4 4 4 5 5 5 5 5 5 5 5 5 5 5 5 5 5 5 4 4 4 4 4 4 3 3 3 3 3 3 4 3 3 3 2 2 2 1 1 0 -0 -1 -1 -1 -1

GFSSW_700_temp_063.txt.gz
Temp
5 5 5 5 5 5 5 5 6 6 7 6 6 7 8 8 8 9 10 9 9 9 10 10 11 11 11 11 11 12 12 12 12 12 12 12 12 11 11 11 11 11 11 11 11
5 4 4 4 4 4 5 5 5 6 6 6 6 7 7 8 8 9 9 9 9 9 9 10 10 11 11 11 11 12 12 12 12 12 12 12 11 11 11 11 11 11 11 11 11
4 4 4 4 4 4 4 4 4 5 5 5 6 6 6 7 8 9 8 8 9 8 9 9 10 10 11 11 11 11 12 12 12 12 12 11 11 11 11 11 11 10 11 11 11
4 4 4 3 3 3 2 3 3 3 4 4 5 6 6 6 7 8 8 8 8 8 8 8 9 10 10 11 11 11 11 11 11 11 11 11 11 11 10 10 10 11 11 10 10
4 3 3 2 2 1 1 1 1 2 3 3 4 5 5 6 7 7 7 7 7 7 8 8 9 9 10 10 11 11 11 11 11 11 11 11 10 10 10 10 11 11 10 10 10
3 3 2 1 0 -1 -1 -0 0 1 2 3 4 4 5 6 6 6 7 7 7 7 8 8 9 9 9 10 11 11 11 11 11 11 10 10 10 10 10 10 10 10 10 10 9
3 2 1 0 -1 -2 -2 -2 -1 0 1 2 3 4 5 6 6 6 6 7 7 7 8 8 8 9 9 10 10 11 11 11 11 10 10 10 10 10 11 10 10 10 10 9 9
2 1 0 -1 -2 -2 -2 -1 -1 -0 1 2 2 3 5 4 5 6 6 7 7 7 7 8 8 8 9 9 10 10 10 10 10 10 10 10 10 10 10 10 10 10 9 9 8
2 1 -1 -2 -2 -2 -2 -2 -1 -0 1 1 2 3 4 4 5 6 6 7 7 7 7 8 8 8 9 9 10 10 10 10 10 10 10 10 10 10 10 10 10 9 9 8 8
2 0 -1 -1 -2 -2 -2 -1 -1 0 1 1 2 3 4 5 5 6 7 7 7 7 7 8 7 8 8 9 9 10 10 10 10 10 10 10 10 10 10 10 10 9 9 8 8
1 1 -1 -1 -2 -1 -1 -1 -0 0 1 2 3 4 4 5 5 6 7 7 7 7 7 8 8 8 9 9 9 10 10 9 10 10 9 10 10 10 9 10 10 9 8 8 7
2 1 -0 -1 -1 -1 -1 -0 1 1 2 2 3 4 5 5 5 6 6 7 7 7 7 7 8 8 8 8 9 9 9 9 9 9 9 9 10 10 10 10 10 9 9 8 7
2 1 1 0 -0 -0 -0 1 1 2 2 3 3 4 4 5 6 6 6 7 7 8 8 8 8 8 9 9 9 9 9 9 8 8 8 9 10 10 9 9 9 9 8 8 8
3 2 1 1 0 1 1 2 2 3 3 3 4 3 4 5 5 6 6 7 7 7 8 8 8 9 9 9 9 8 8 8 8 8 7 7 7 9 8 8 8 9 9 8 8
3 2 1 2 1 1 2 2 2 3 2 4 4 4 4 5 6 6 6 7 7 8 8 8 8 8 8 8 8 8 8 8 7 7 6 7 5 8 7 7 8 8 8 9 8
2 2 2 2 2 2 2 3 3 3 3 4 4 5 5 5 6 6 6 7 7 7 8 8 8 8 8 8 7 7 7 7 6 6 4 5 5 7 7 7 7 7 8 8 7
2 2 2 2 3 3 3 3 3 4 4 4 5 5 5 5 6 6 6 7 8 7 7 8 7 7 7 7 7 7 6 6 6 5 5 5 4 6 6 6 7 7 7 7 7
3 3 3 3 4 4 3 3 4 4 4 4 5 5 5 6 6 6 6 7 7 7 7 7 7 7 7 6 6 6 6 7 6 5 4 5 5 5 5 6 6 6 6 6 6
3 3 3 4 4 4 4 4 5 5 4 4 5 4 5 5 6 6 6 6 7 7 7 7 6 6 6 6 6 5 5 6 5 3 3 5 5 5 5 5 5 6 6 5 5
3 3 4 4 4 5 4 5 5 5 5 5 5 5 6 6 6 6 6 6 6 6 6 6 6 6 5 5 5 5 5 5 5 4 4 4 5 5 4 5 5 5 5 5 4
3 3 4 4 4 5 5 5 5 5 5 5 5 6 6 6 6 6 6 6 6 6 5 5 5 5 5 5 5 5 4 4 5 4 4 4 5 5 5 5 5 4 4 4 3
3 3 4 4 4 5 5 5 5 5 6 6 6 6 6 6 6 6 6 6 6 5 5 5 5 5 5 5 5 5 5 4 5 3 3 2 4 5 5 4 4 4 3 3 2
3 3 4 4 4 5 5 5 5 5 6 6 6 6 6 6 5 5 5 5 5 5 5 5 5 5 4 4 4 4 4 4 4 4 3 3 4 4 4 3 3 3 2 2 1
3 3 4 4 5 5 5 5 5 5 6 6 6 5 5 5 5 5 5 5 5 5 5 5 5 5 5 5 4 4 4 4 3 3 3 4 4 4 3 2 2 1 1 1 1
3 4 4 5 5 5 5 5 5 5 5 5 5 5 5 5 5 5 5 5 5 5 5 5 5 5 5 4 4 4 4 4 4 3 3 3 3 3 2 1 1 1 0 -0 -0
3 3 4 4 5 5 5 5 5 5 5 5 5 5 5 5 5 5 5 5 5 5 5 5 4 4 4 4 4 4 4 4 3 3 3 2 2 2 2 2 1 0 -0 -1 -1
3 3 4 4 5 5 5 5 5 5 5 5 5 5 5 5 5 5 5 5 5 4 4 4 4 4 3 3 3 4 5 4 4 3 2 2 2 2 1 1 0 -0 -1 -1 -2

GFSSW_700_temp_069.txt.gz
Temp
6 6 6 6 6 6 6 6 7 7 7 7 7 7 8 9 9 9 10 10 10 10 10 10 10 10 10 11 11 12 12 13 14 13 13 13 12 12 12 12 11 11 11 10 11
6 6 6 6 6 6 6 6 6 6 7 7 7 7 7 8 9 9 10 9 9 9 10 10 10 10 10 10 11 11 12 13 14 13 13 13 12 12 12 12 11 11 11 11 10
6 6 5 5 5 5 5 5 6 6 6 6 7 7 7 7 7 9 9 9 9 9 9 9 9 10 10 10 11 11 12 13 13 12 12 12 12 12 12 11 11 10 11 11 10
6 5 5 5 5 5 5 5 5 5 5 5 6 6 6 6 6 6 9 9 8 9 9 9 9 9 9 10 10 11 11 12 12 12 12 12 12 12 11 11 11 11 10 11 10
6 5 5 5 5 4 4 4 4 4 4 4 5 5 5 6 7 6 8 8 8 8 9 8 8 8 8 9 10 10 11 12 12 12 12 12 11 11 11 11 11 11 11 10 10
5 5 5 5 4 4 3 3 2 2 2 3 3 4 4 5 6 6 6 8 7 8 8 8 7 7 8 9 9 10 10 11 11 12 12 11 11 11 11 11 10 11 11 10 10
5 5 4 4 3 3 3 1 1 0 1 1 2 2 3 6 5 5 5 6 7 7 7 8 7 7 7 8 9 10 10 11 11 11 11 11 11 11 10 10 10 10 10 10 10
5 4 4 3 3 2 1 -0 -1 -1 -1 -0 0 1 3 4 4 5 5 6 7 7 7 7 8 7 7 7 9 9 9 9 9 10 10 10 11 11 10 10 10 10 10 10 10
4 4 4 3 2 2 1 -0 -1 -1 -1 -0 0 1 3 4 4 5 5 5 6 6 7 7 7 7 7 7 8 9 10 9 8 8 9 9 10 10 10 10 10 10 10 10 9
4 4 3 3 2 1 -0 0 0 -0 0 0 1 1 2 2 3 4 4 5 6 6 6 7 7 7 8 8 10 10 10 10 9 8 8 9 10 9 10 10 10 9 9 9 9
4 3 3 2 1 0 0 -0 -1 -1 -0 0 -1 1 1 2 3 4 4 5 5 6 6 6 7 8 9 9 10 10 10 10 9 8 8 8 9 9 9 9 10 10 9 7 7
4 3 2 2 1 0 0 0 -0 -0 1 1 1 2 2 3 3 3 5 4 4 5 7 6 7 8 9 9 9 9 10 9 8 8 8 8 8 10 9 9 10 9 9 8 6
4 3 2 1 1 1 0 0 1 1 1 1 2 2 2 3 4 4 4 4 5 6 7 8 8 8 8 8 8 9 9 9 8 8 8 7 9 10 9 9 9 9 9 8 6
4 2 2 2 1 1 1 1 1 2 2 2 2 2 2 3 3 4 4 5 6 7 6 8 7 8 7 8 8 9 8 8 8 8 9 8 10 10 9 7 6 7 8 8 8
3 2 2 2 2 2 2 2 2 2 3 3 2 3 3 3 4 4 4 5 6 7 7 8 7 8 7 8 7 9 9 8 8 8 8 9 8 11 9 7 6 7 8 8 8
3 2 2 2 2 3 2 2 1 1 4 3 3 3 3 3 4 4 4 5 5 6 6 7 7 7 7 7 8 8 8 8 8 8 9 10 9 11 8 7 6 7 8 8 8
2 2 2 2 3 3 2 2 2 4 3 3 3 3 4 4 4 4 4 5 6 6 7 6 6 7 7 7 7 7 8 10 10 9 11 8 8 10 6 7 7 7 7 7 7
2 2 2 3 3 4 3 2 3 4 2 3 3 3 4 4 4 4 4 5 6 7 8 8 6 6 7 7 8 7 8 10 10 12 12 8 9 8 7 6 6 6 6 6 6
2 2 3 3 4 3 3 4 5 4 4 3 3 3 1 4 4 5 5 6 6 7 8 9 6 6 7 7 7 6 7 8 9 9 9 10 8 7 6 6 6 6 6 5 5
3 3 3 3 3 3 3 4 4 4 4 4 3 3 2 4 4 4 5 5 6 6 7 8 6 5 6 6 6 6 6 7 7 9 10 11 10 10 5 4 5 5 5 4 4
3 2 3 3 3 3 3 5 5 4 4 4 4 5 5 4 4 4 5 5 6 6 6 7 7 5 5 6 7 5 6 6 7 8 10 10 10 7 5 4 3 4 4 4 4
3 2 3 3 3 3 4 4 5 5 5 5 5 5 4 5 5 5 5 6 6 6 5 6 7 7 6 6 6 6 6 6 7 8 8 8 8 6 4 5 5 5 4 4 4
2 2 3 3 3 4 4 4 5 5 5 5 5 5 5 4 5 5 5 6 6 6 5 5 6 7 5 5 6 5 5 5 5 5 6 8 7 6 5 5 4 4 4 3 3
2 2 3 3 3 4 4 4 4 5 5 5 5 5 5 5 5 5 5 5 5 5 5 5 6 6 8 6 6 5 6 6 5 6 7 7 7 5 5 4 3 3 2 2 2
2 1 2 3 4 4 3 4 4 5 5 5 5 5 4 4 4 4 5 5 5 5 5 5 5 6 6 6 6 5 4 5 4 5 6 6 5 5 3 2 1 2 2 1 1
2 1 2 2 3 4 3 4 5 4 5 5 5 5 5 4 4 4 4 5 5 5 5 5 4 5 5 6 5 5 5 4 3 3 4 4 3 3 3 2 2 2 1 1 -1
1 1 1 2 2 3 3 4 4 5 5 5 5 5 4 5 4 5 5 5 5 5 5 5 4 4 6 5 4 5 5 4 3 3 3 3 3 3 3 3 2 1 1 -0 -0

GFSSW_700_temp_072.txt.gz
Temp
7 7 7 6 7 7 7 7 7 7 7 8 8 8 8 8 9 9 10 10 10 10 10 10 10 10 10 10 11 11 11 12 13 14 14 13 13 12 12 12 12 11 11 11 11
7 7 6 6 6 6 7 7 7 7 7 7 7 8 8 8 8 9 10 9 9 9 10 10 10 9 10 10 10 11 11 12 13 13 13 13 12 13 12 12 12 11 11 11 10
7 7 6 6 6 6 6 6 6 6 7 7 7 7 7 8 8 8 9 9 9 9 9 9 9 9 10 10 10 11 11 12 12 12 13 13 12 12 12 11 11 11 11 11 10
7 6 6 6 6 6 6 6 6 6 6 6 6 7 7 7 6 6 9 9 8 8 9 9 9 9 9 9 9 10 11 12 11 11 12 12 12 12 12 11 11 11 10 11 10
6 6 6 6 6 6 6 5 5 5 5 5 5 6 6 6 8 6 7 8 8 8 8 9 9 8 8 9 9 9 10 11 11 11 12 12 11 11 12 11 11 11 10 11 11
6 6 6 5 6 5 5 5 4 4 4 3 3 4 5 6 6 6 5 7 8 8 8 8 8 7 8 8 9 9 10 10 10 11 12 11 11 11 11 11 11 11 10 10 10
6 6 5 5 5 5 4 4 3 3 2 2 2 2 4 6 5 6 5 6 6 6 7 7 8 7 7 8 9 9 9 9 10 10 10 11 10 11 10 11 10 10 10 10 10
6 6 5 5 4 4 4 3 3 2 2 1 1 1 4 3 4 4 5 6 7 7 6 6 7 6 7 7 8 8 9 9 9 10 10 10 10 10 10 10 10 10 10 10 10
6 5 5 5 4 4 3 3 2 2 1 1 1 1 3 3 4 4 5 5 5 6 6 5 6 7 6 7 8 8 8 9 9 9 9 9 9 9 9 9 10 10 10 9 9
5 5 5 4 4 3 2 2 2 1 1 1 1 1 2 1 2 3 4 5 4 5 5 6 6 6 6 7 7 9 9 9 9 9 9 9 9 7 8 9 9 9 9 8 8
5 5 4 3 3 3 2 1 1 1 2 1 0 1 1 1 2 3 3 4 4 4 5 6 6 6 7 8 9 10 10 10 9 8 8 8 7 8 8 9 9 9 9 8 7
5 4 4 3 2 2 1 1 1 1 2 1 2 1 1 2 3 3 3 4 4 4 5 6 6 7 8 9 9 10 10 10 8 7 8 8 8 8 8 8 9 9 9 9 7
4 3 4 2 2 2 2 2 2 1 2 2 2 2 2 3 3 4 3 4 4 5 5 6 7 8 9 9 9 10 10 10 9 9 8 8 8 8 9 9 8 9 9 9 8
4 3 3 2 2 2 2 2 2 2 1 2 2 3 3 3 3 4 4 4 5 5 6 7 8 8 8 8 9 9 9 9 9 9 8 9 8 9 10 8 8 7 8 8 8
3 3 3 3 3 3 2 1 2 2 3 3 3 3 3 3 3 4 4 4 5 6 6 7 7 7 8 8 8 9 8 9 8 8 9 8 8 9 8 8 7 7 8 8 8
3 3 3 3 3 3 3 2 2 2 4 3 3 3 3 3 4 4 4 4 6 6 7 6 7 7 7 8 8 7 8 8 8 8 8 9 9 9 8 8 7 8 8 8 8
3 3 3 3 3 3 2 2 1 0 3 3 3 3 4 4 4 4 4 5 5 6 6 6 6 7 7 7 7 7 7 8 6 6 7 9 10 8 9 8 7 7 7 7 7
2 2 3 3 3 2 3 2 1 3 3 2 3 3 3 4 4 4 5 5 5 5 7 7 6 6 7 7 7 8 8 9 8 8 8 8 9 7 8 8 7 7 7 7 6
2 2 3 3 3 2 3 2 5 4 3 2 2 2 2 4 3 5 5 5 6 6 6 7 6 6 6 7 7 7 7 8 8 9 9 10 8 7 8 7 7 6 6 6 6
2 2 3 3 3 3 3 4 4 5 3 3 2 2 1 3 4 5 5 5 6 6 6 7 6 5 6 7 7 7 7 7 8 8 8 10 8 7 7 7 6 6 6 5 5
2 2 3 2 2 3 3 4 4 5 4 4 4 4 3 4 4 4 5 5 6 6 6 7 7 5 6 6 7 7 7 7 7 8 7 6 6 6 6 6 6 6 6 5 4
2 1 2 2 2 3 4 5 5 5 5 4 5 5 4 4 5 4 5 5 5 6 5 6 7 7 6 6 6 6 7 7 7 8 8 7 6 6 5 5 5 5 5 4 4
2 2 2 1 2 4 4 5 5 5 5 5 5 5 5 4 5 4 5 5 5 5 6 6 7 6 6 6 6 6 6 7 7 7 7 6 6 6 6 5 5 4 4 4 3
2 1 1 2 3 3 4 4 5 5 5 5 5 5 5 5 5 5 5 5 5 6 6 6 6 6 6 6 6 6 6 6 5 6 6 7 7 6 5 4 4 3 3 2 2
1 1 1 1 3 3 3 4 4 4 5 5 5 5 4 4 4 4 5 5 5 5 5 5 5 6 6 6 6 6 5 6 6 6 6 6 6 5 4 3 2 2 3 2 1
1 0 1 1 2 2 3 3 3 4 4 4 5 5 5 4 4 4 4 4 5 5 5 5 5 5 5 6 6 6 6 6 5 5 4 5 4 4 4 3 3 2 2 2 0
0 0 -1 1 2 2 3 3 4 3 4 4 5 5 5 5 4 4 4 4 5 5 5 5 4 4 5 5 5 6 5 5 4 4 4 3 4 4 4 3 3 2 2 1 0

GFSSW_700_temp_075.txt.gz
Temp
7 7 7 7 7 7 7 7 8 8 8 8 8 8 8 9 9 9 10 10 10 10 10 10 10 10 10 10 10 10 11 12 13 12 12 12 13 12 12 12 12 11 11 11 11
8 7 7 7 7 7 7 7 8 8 8 8 8 8 8 9 9 9 9 9 9 9 9 10 10 9 9 10 10 10 10 12 12 12 12 12 13 13 12 12 12 11 11 11 11
7 7 7 7 7 7 7 7 7 7 7 7 8 8 8 8 9 8 9 9 9 9 9 9 9 9 9 9 10 10 10 12 12 11 12 12 12 12 12 12 12 11 11 11 10
7 7 7 7 7 7 7 7 7 7 7 6 7 7 7 8 7 7 8 9 9 9 9 9 9 8 9 9 10 9 10 10 11 11 12 12 12 12 12 12 11 11 11 10 10
7 7 7 7 7 7 6 6 6 6 6 5 6 6 6 7 8 6 6 8 8 8 9 8 9 8 8 9 9 9 10 9 10 11 11 11 11 12 12 11 11 11 10 10 10
7 7 7 7 6 6 6 6 5 5 5 5 4 4 5 6 6 6 6 7 8 7 8 8 8 8 8 8 9 9 9 9 9 10 10 11 11 11 11 11 11 10 10 10 10
7 7 7 6 6 6 5 5 5 5 4 4 4 3 4 4 5 5 5 6 7 7 7 7 7 7 7 7 8 8 9 9 9 10 9 10 10 11 10 10 10 10 10 10 10
7 7 7 6 6 5 5 5 4 4 4 3 3 3 3 3 3 4 4 5 5 7 7 6 6 7 7 7 8 8 9 9 9 9 9 9 10 10 10 10 10 10 10 10 10
6 6 6 6 5 5 4 4 3 3 2 2 2 3 3 2 3 3 3 4 5 5 7 6 6 6 7 7 7 8 8 8 9 9 9 9 9 9 9 9 9 9 9 9 9
6 6 5 5 5 4 3 3 3 3 2 2 2 2 2 1 1 2 3 3 4 4 5 5 5 5 6 7 7 8 8 8 9 9 9 9 9 9 9 9 9 8 8 8 8
6 5 5 4 4 3 3 3 3 3 3 2 2 2 2 1 1 2 3 3 3 3 4 5 4 5 6 6 7 8 9 9 9 9 8 8 9 9 9 9 8 9 8 8 8
5 5 5 3 3 3 2 2 2 2 3 2 2 2 2 2 2 3 3 3 3 3 4 4 5 6 6 6 7 8 8 8 8 8 8 8 9 9 9 8 8 8 8 8 7
4 4 4 3 3 3 2 2 2 3 3 3 2 3 2 2 3 3 3 3 3 4 4 5 6 6 6 7 7 8 8 9 9 8 8 9 8 9 9 8 7 8 8 8 8
4 4 4 3 3 3 2 2 2 2 2 3 3 2 3 3 3 3 3 3 4 4 4 4 6 6 7 7 8 8 9 9 9 9 8 8 7 9 9 8 8 8 8 8 7
4 4 3 3 3 3 2 2 2 2 1 3 3 3 3 3 3 3 4 3 4 4 4 5 6 7 7 7 8 8 9 9 8 8 8 8 8 9 9 9 9 8 8 8 8
4 3 3 2 2 2 2 2 2 2 2 2 3 3 3 3 4 4 3 3 4 4 5 4 5 6 7 7 8 8 8 9 8 8 6 9 8 7 8 9 9 8 8 8 8
4 4 3 2 2 2 3 3 2 3 3 2 3 3 3 3 4 4 3 4 4 4 5 4 6 7 7 7 7 8 8 6 5 5 4 9 8 9 8 7 7 8 8 7 7
3 3 3 2 2 2 3 3 2 4 3 2 2 2 3 4 4 4 4 4 4 5 5 6 6 6 5 6 7 7 8 7 5 3 5 9 8 8 8 8 8 8 7 7 7
4 4 3 2 1 2 3 3 4 4 3 3 2 2 3 3 4 4 5 5 5 5 5 5 5 6 6 6 7 7 7 7 8 8 7 8 6 6 7 7 7 8 7 6 6
4 4 3 2 2 2 3 4 4 4 4 3 3 0 3 4 4 4 5 5 5 5 5 5 5 5 5 6 7 7 7 7 8 6 6 7 5 7 7 7 8 7 7 6 6
3 3 3 3 3 2 2 4 4 4 4 4 3 3 3 3 4 4 4 5 5 5 6 6 6 5 6 6 7 7 7 7 7 7 4 4 5 7 7 7 7 7 6 6 5
3 3 3 3 3 2 3 3 3 5 5 5 4 4 4 4 5 4 5 4 5 5 5 5 6 6 6 6 6 6 7 7 7 7 8 7 5 6 6 6 6 6 5 5 5
3 2 2 2 2 3 3 3 3 4 5 4 4 4 4 4 4 4 4 4 4 4 4 5 5 5 5 6 6 6 6 6 6 7 7 4 5 5 5 5 5 5 5 4 3
1 2 2 2 2 1 2 3 4 4 4 4 4 5 4 4 4 4 4 5 5 5 5 5 5 6 6 6 6 6 6 6 6 6 6 6 6 5 4 4 4 4 4 3 2
1 1 1 2 2 1 1 1 2 4 3 4 4 4 4 4 4 4 4 4 5 5 5 5 5 5 6 6 6 6 6 6 6 6 6 5 5 5 4 4 3 3 3 2 2
0 0 1 1 2 2 2 3 2 3 3 3 4 4 4 4 4 4 4 4 5 5 5 5 5 5 5 6 6 6 6 6 6 6 5 5 5 4 4 3 3 2 2 2 1
-0 -0 -0 1 1 1 2 2 2 2 3 3 3 4 4 4 4 4 4 4 4 4 5 5 5 5 5 4 5 6 6 6 5 5 5 5 5 4 3 3 3 2 2 2 1

GFSSW_700_temp_081.txt.gz
Temp
8 8 7 7 8 8 8 8 8 8 8 8 9 9 9 9 9 9 9 9 9 9 10 10 10 10 10 9 10 10 10 10 11 11 12 11 12 11 11 11 12 12 11 11 11
8 8 8 8 8 8 8 8 8 8 8 8 9 9 9 8 9 9 9 9 9 9 9 9 9 9 9 9 9 9 9 11 11 11 11 11 11 12 11 12 12 12 11 11 11
8 8 8 8 8 8 8 8 8 8 8 8 8 8 8 8 8 9 9 9 9 9 9 9 9 9 9 9 9 9 9 10 10 10 11 11 12 11 11 12 12 12 11 11 10
7 7 7 8 8 8 8 8 7 7 7 7 7 8 7 7 7 8 8 8 8 9 8 8 8 8 8 9 8 8 9 10 10 10 11 11 11 11 12 12 12 11 11 11 10
7 7 7 7 7 8 7 7 7 7 7 7 7 7 7 7 7 7 7 7 7 7 8 7 7 8 8 8 8 8 9 10 10 10 11 10 11 11 11 11 12 11 11 11 10
7 7 7 7 7 7 7 7 6 6 6 6 6 6 6 6 6 6 6 6 6 6 7 7 7 7 6 7 7 8 8 9 9 9 10 10 11 11 11 11 11 11 11 10 10
7 7 7 6 6 6 6 5 5 5 5 5 5 5 5 5 5 5 5 5 5 5 6 6 6 6 5 6 7 7 8 8 8 8 9 10 10 11 11 11 11 11 10 10 10
7 7 6 6 6 5 5 5 4 4 4 4 4 4 4 4 4 4 3 3 3 4 4 4 5 6 5 5 6 7 7 8 8 8 8 9 10 10 10 10 10 11 10 10 9
7 7 6 6 5 5 5 4 4 4 4 4 4 4 3 3 3 3 2 3 2 3 3 3 4 5 4 5 6 6 7 7 8 8 8 8 9 10 10 10 10 10 9 9 9
6 6 6 5 5 5 4 4 3 4 4 4 3 3 3 2 2 2 1 1 2 2 2 2 2 4 4 5 5 6 7 7 8 8 8 8 8 9 9 9 9 10 9 9 9
6 6 6 5 5 5 4 4 5 4 3 3 2 3 3 3 2 2 2 1 2 2 1 2 1 3 4 5 5 6 7 7 8 8 8 9 8 8 8 8 9 9 9 9 9
6 6 5 5 4 4 4 4 4 3 4 3 3 3 3 3 3 2 2 2 1 1 1 2 2 3 4 4 5 6 7 7 8 8 8 8 9 8 8 8 8 9 9 8 8
6 5 5 5 4 4 4 4 4 3 3 3 3 3 2 3 3 3 2 2 2 2 2 2 2 3 4 4 5 6 6 7 7 8 7 8 8 8 8 8 8 8 8 8 8
6 6 5 5 4 4 4 4 4 3 3 3 3 2 2 3 3 3 2 2 2 2 2 2 3 3 4 5 5 6 6 6 7 7 7 7 6 8 8 8 9 8 8 8 8
5 5 5 5 4 4 4 4 4 3 1 4 2 2 2 3 3 3 2 2 2 2 2 3 3 4 4 5 5 5 6 6 6 6 6 6 6 9 9 9 10 9 8 8 7
5 5 5 5 4 4 4 4 4 3 3 3 2 2 3 3 3 3 3 2 2 3 3 3 4 4 4 5 5 5 6 6 6 5 4 7 7 8 9 10 9 9 9 8 7
4 5 5 5 4 4 4 4 4 4 3 3 2 3 3 3 3 3 3 3 2 3 3 3 4 4 4 5 5 5 5 3 3 3 3 7 6 8 9 9 9 8 8 8 7
4 4 4 4 4 4 4 4 3 3 3 3 3 3 3 3 4 4 3 2 2 2 2 3 3 3 4 4 5 5 5 5 4 2 4 6 6 8 9 8 8 8 8 7 7
4 4 4 4 4 4 3 3 3 3 2 3 3 4 4 3 3 3 3 3 3 1 2 1 1 2 3 3 4 4 4 5 5 5 5 6 7 8 9 8 8 8 8 7 7
3 3 4 4 4 4 3 3 3 3 3 3 3 3 3 4 4 4 3 3 3 3 2 3 -0 2 3 3 4 5 5 4 2 4 5 4 5 9 9 9 8 7 7 7 7
3 3 3 3 4 4 3 3 4 3 3 3 3 3 3 3 3 3 3 3 3 3 3 3 3 4 4 4 5 5 5 5 6 6 2 3 6 8 8 8 7 7 7 7 6
3 3 3 3 3 3 3 4 3 4 3 3 3 3 3 3 3 3 4 3 3 3 4 4 4 5 5 5 5 5 5 6 6 6 5 5 7 8 8 7 6 6 6 6 6
3 2 2 2 3 3 2 3 3 3 3 3 3 3 3 3 3 3 4 4 4 4 4 4 4 5 5 5 5 4 5 6 6 6 6 3 7 7 7 7 7 6 6 5 5
2 2 2 2 2 2 2 2 2 3 3 3 3 3 3 3 3 3 4 3 3 4 4 4 4 4 4 5 5 5 5 5 6 6 6 6 6 7 7 7 7 6 5 4 4
1 1 2 1 1 2 1 2 2 3 3 3 3 3 3 3 3 3 3 3 3 4 4 4 4 5 5 5 5 5 5 5 5 6 6 6 6 6 6 6 6 5 4 4 3
1 1 1 1 1 1 1 1 1 2 2 2 2 2 2 2 3 3 3 3 3 4 4 4 4 4 5 5 5 5 5 6 6 5 5 5 5 6 6 5 5 4 4 3 3
0 0 0 1 1 1 1 1 1 1 1 2 2 2 2 2 3 3 3 3 3 3 3 4 4 4 4 5 4 5 6 6 6 6 6 5 6 5 5 5 4 3 3 3 2

GFSSW_700_temp_087.txt.gz
Temp
8 8 8 8 8 8 8 8 8 8 8 8 8 8 9 9 9 9 9 9 9 9 9 9 9 9 9 9 9 9 8 8 9 10 11 11 11 11 11 11 11 11 11 11 11
8 8 8 8 8 8 8 8 8 8 8 8 8 8 8 8 8 9 9 9 9 9 9 9 9 9 9 8 9 8 8 9 10 10 11 11 11 11 11 11 11 11 11 11 11
8 8 7 7 8 8 8 8 8 8 8 8 8 8 8 8 8 8 8 8 8 8 8 8 8 8 8 8 8 8 8 9 9 10 10 10 10 11 10 10 11 12 11 11 11
8 8 8 8 8 8 8 7 7 8 7 7 7 7 7 7 8 8 8 7 7 7 8 8 8 7 7 8 8 8 8 8 9 9 9 9 10 10 10 11 11 11 11 11 11
8 8 7 7 7 7 7 7 7 7 6 6 6 6 7 7 7 7 7 7 7 6 7 7 7 7 7 7 7 7 8 8 8 9 9 9 9 9 10 10 11 11 11 11 11
7 7 7 7 7 7 7 7 6 6 6 6 6 6 6 6 6 6 6 6 6 6 6 6 6 6 5 6 6 6 7 7 7 8 8 8 9 9 10 10 11 11 10 11 11
7 7 7 7 7 6 6 6 6 6 6 6 5 5 5 5 5 5 5 5 5 5 5 5 5 5 5 5 5 5 5 6 7 7 8 8 8 9 10 10 10 9 9 10 10
7 7 7 7 6 6 6 6 5 6 6 5 4 4 4 4 4 4 4 4 4 4 4 4 4 4 3 4 3 4 5 5 6 7 7 7 8 9 9 9 10 10 9 10 10
7 7 7 7 6 6 5 5 5 5 5 4 4 4 4 3 3 4 3 3 3 3 3 3 3 3 2 2 2 3 4 4 5 6 6 7 7 8 9 9 9 9 9 9 9
7 6 6 6 6 5 5 5 5 5 4 4 3 3 3 3 3 4 3 3 3 2 2 3 2 1 1 1 1 2 4 4 5 6 6 7 7 8 9 9 9 9 9 8 9
6 6 6 6 5 5 5 5 6 6 4 4 3 2 2 3 3 3 3 2 2 2 2 2 1 1 1 1 2 2 3 4 5 6 6 7 7 7 7 8 8 8 8 8 9
6 6 5 5 5 5 5 5 5 5 5 4 3 2 2 3 4 3 3 2 2 2 1 1 1 2 1 0 1 3 3 5 5 6 6 7 7 7 7 8 9 8 8 8 8
6 5 5 5 5 5 4 4 5 5 5 4 3 3 3 3 3 3 3 2 2 2 1 1 2 1 0 1 1 3 2 4 5 6 6 6 6 7 7 8 8 8 8 8 7
6 5 5 5 5 4 4 4 5 5 4 4 4 3 3 3 3 3 3 2 2 0 1 1 2 1 1 1 1 2 4 3 5 6 6 6 6 7 8 8 8 8 8 8 7
6 6 5 5 5 4 4 4 4 4 3 4 4 4 3 3 3 3 2 2 1 -0 -0 2 1 2 1 2 2 3 4 4 4 4 5 5 5 6 7 7 8 8 9 8 7
5 5 5 5 5 4 4 4 4 4 4 4 4 4 4 3 3 3 2 1 0 0 1 1 2 2 2 2 2 3 3 4 3 4 5 5 5 6 7 8 8 8 8 8 8
5 5 5 5 4 4 4 4 4 4 4 4 4 4 4 4 3 3 3 2 1 -0 -0 1 2 2 2 2 2 3 3 2 3 4 5 5 5 6 7 7 8 8 8 9 8
5 5 5 4 4 4 4 3 3 4 4 4 4 4 4 3 4 3 3 2 1 -0 -1 -1 1 2 2 3 3 3 3 1 3 4 5 5 4 7 8 8 7 8 8 8 8
4 5 4 4 4 4 4 3 3 3 3 3 4 4 4 3 4 3 3 3 2 1 -1 -2 -1 1 2 2 3 3 3 2 4 3 3 4 6 7 7 8 8 8 8 8 8
4 4 4 4 4 4 3 3 3 3 3 3 3 3 3 3 4 3 3 3 2 2 1 -1 0 1 2 2 2 3 4 3 4 4 5 4 5 7 8 8 8 8 7 7 7
3 3 4 4 4 3 3 3 3 2 2 2 3 3 3 3 3 3 3 3 2 2 2 1 -0 1 2 2 2 3 3 4 4 4 4 5 7 8 8 8 8 8 7 6 6
2 2 3 3 3 3 3 3 2 3 2 2 2 3 3 3 3 3 3 3 2 2 2 2 1 1 -0 2 3 3 4 4 4 3 4 3 6 7 8 8 8 7 6 6 6
1 1 2 3 3 3 2 2 2 2 2 2 2 2 2 2 3 3 3 3 3 3 2 2 2 2 2 2 3 3 3 4 4 4 4 4 6 7 7 7 7 7 6 5 6
1 0 1 2 3 2 2 2 2 1 2 2 2 2 2 2 2 3 3 3 3 3 3 2 2 3 3 4 4 4 3 4 4 4 5 5 6 6 6 6 7 7 6 6 5
1 -0 0 1 2 2 1 2 2 1 1 1 1 1 1 2 2 2 2 3 3 3 3 3 2 3 3 4 4 4 4 4 4 4 4 5 5 6 6 6 6 5 5 5 5
-0 -1 -0 0 1 1 1 1 2 2 1 1 1 1 1 1 1 2 2 3 3 3 3 3 2 2 3 4 4 4 4 4 4 5 5 5 5 5 5 5 5 5 5 4 4
-0 -0 -1 -1 0 0 1 1 1 1 1 1 1 1 1 1 1 2 2 3 3 3 3 3 2 2 4 4 4 4 5 5 5 5 5 5 5 5 5 5 5 4 4 3 3

GFSSW_700_temp_093.txt.gz
Temp
9 9 8 8 8 9 9 9 9 9 9 9 9 9 9 9 9 9 9 9 9 9 9 9 9 8 8 9 8 8 7 9 10 11 12 12 11 11 11 11 11 11 11 11 12
8 8 8 8 8 8 8 8 8 8 8 8 8 8 8 8 8 8 8 9 8 8 8 8 8 8 8 8 8 8 7 9 10 11 11 11 11 11 11 11 11 11 11 10 11
8 8 8 8 8 8 8 8 8 8 8 8 8 8 7 7 7 7 7 7 8 8 8 8 8 8 8 7 7 6 8 8 9 9 9 10 10 10 10 10 11 10 11 11 11
8 8 8 8 8 8 8 8 8 8 7 7 7 7 7 7 6 6 6 7 7 7 7 7 7 7 7 7 6 6 7 7 8 8 8 8 9 10 9 10 10 10 10 11 11
8 8 8 8 8 8 7 7 7 7 7 7 7 6 6 6 6 6 6 6 6 7 7 7 6 6 6 5 5 6 6 7 7 7 7 8 8 9 10 10 10 10 9 10 11
7 7 7 7 7 8 7 7 7 6 6 6 6 6 5 5 5 5 5 6 6 6 6 6 6 6 6 6 6 6 5 6 6 7 7 7 8 8 9 9 8 10 10 10 10
7 7 7 7 7 7 7 7 6 6 6 6 5 5 4 4 5 4 5 5 5 5 5 5 5 5 4 4 4 4 5 5 6 6 6 7 7 8 9 9 8 10 10 9 10
7 7 7 7 7 7 7 7 6 6 6 5 5 4 4 4 4 4 4 4 4 4 4 4 4 5 5 4 4 4 5 6 7 6 6 6 7 8 9 9 8 9 9 8 9
7 7 7 7 7 7 7 7 6 6 6 5 5 4 3 4 4 4 4 4 4 4 3 3 3 4 4 3 4 5 5 7 7 7 7 7 7 8 9 9 8 8 9 8 9
7 7 7 7 7 6 6 7 6 6 6 5 5 4 4 4 4 4 4 4 3 3 3 3 2 2 3 4 5 6 7 7 7 7 7 7 7 7 8 9 8 8 8 9 9
7 7 7 7 7 6 6 7 6 6 5 5 5 4 4 4 4 4 4 4 4 2 3 3 2 3 4 4 3 3 4 5 5 6 7 7 7 7 8 7 7 8 7 9 9
7 7 7 7 6 6 6 6 5 5 5 5 5 5 4 4 4 3 3 3 2 3 3 3 3 3 2 2 3 3 3 4 4 5 6 7 7 7 8 7 8 8 7 8 9
7 7 6 6 6 6 6 6 5 5 5 5 5 5 5 5 4 3 4 3 2 2 3 2 2 2 2 2 3 3 3 3 4 5 6 7 7 8 8 7 7 6 7 7 8
6 6 6 6 6 6 5 5 5 5 5 5 5 5 5 4 4 4 4 3 3 3 2 1 2 2 2 3 3 3 3 3 3 4 5 7 7 8 8 7 7 6 7 8 8
6 6 6 6 6 5 5 5 5 5 8 5 5 5 4 4 4 4 4 3 2 2 1 2 1 1 1 3 3 3 3 3 3 4 5 4 7 9 9 8 7 7 7 8 8
5 5 5 5 5 5 5 5 5 5 8 5 5 4 4 4 4 4 3 3 2 2 3 1 1 1 1 2 2 2 2 3 3 4 3 1 3 9 10 9 9 8 7 7 8
5 5 5 5 5 5 5 5 4 6 5 5 4 4 4 4 4 4 4 4 3 2 3 2 2 1 2 2 3 2 3 -0 1 2 4 3 3 5 8 9 9 9 8 6 8
5 4 4 4 5 5 4 4 5 5 5 4 3 4 4 4 4 4 5 5 4 2 3 1 1 1 1 1 1 3 3 0 2 3 3 5 6 6 5 7 8 7 7 7 8
5 4 4 4 4 4 4 4 6 4 3 3 4 4 5 5 4 5 5 4 3 2 2 1 1 1 1 1 2 3 2 0 -1 0 1 5 8 8 7 7 7 7 7 8 8
4 4 4 4 4 4 3 4 3 3 3 3 3 4 4 4 4 4 5 3 2 2 1 2 1 2 2 2 2 3 2 1 -0 3 4 7 5 7 6 5 7 7 7 7 7
4 4 4 3 3 3 2 3 3 3 3 2 3 3 3 3 3 4 4 3 3 3 1 1 2 3 2 3 3 3 2 2 2 4 2 7 7 5 5 5 5 7 7 7 7
4 3 3 3 2 2 2 2 3 3 2 2 2 2 2 2 3 3 3 3 2 2 2 2 2 4 3 3 3 3 3 4 1 2 5 3 6 5 6 6 6 7 6 6 6
3 3 3 3 2 3 2 2 3 2 2 1 1 2 2 2 2 3 2 2 2 3 2 2 3 5 4 5 4 4 4 4 4 4 4 5 5 5 6 6 6 6 6 5 5
2 2 3 3 3 2 1 1 1 2 2 2 2 1 1 2 2 2 2 2 1 3 2 2 2 3 5 5 3 4 4 4 4 4 4 4 5 6 5 5 6 6 6 5 5
2 2 2 2 1 2 2 1 2 0 1 1 1 1 1 1 2 2 2 1 1 2 1 1 2 4 3 4 4 4 4 4 4 4 4 5 5 5 5 5 5 6 5 5 5
2 2 2 1 2 2 1 1 1 1 1 0 0 0 -1 -0 0 0 0 1 1 1 1 1 2 3 4 4 4 4 4 3 3 4 4 4 5 4 5 5 5 5 5 4 4
2 1 1 0 1 1 0 0 1 0 1 1 1 1 1 0 2 1 1 2 2 2 2 0 1 2 5 5 5 6 4 3 3 3 3 4 4 4 4 4 4 4 4 4 3